Pittsburgh, PA

9:19 AM EST on December 11, 2017 (GMT -0500)
Pittsburgh International

Weather History for KPIT - April, 2013

Change the Weather History Date:

Sunday, April 21, 2013

  Actual Average Record
Temperature  
Mean Temperature 40 °F 53 °F  
Max Temperature 52 °F 64 °F 85 °F (1985)
Min Temperature 28 °F 42 °F 22 °F (1875)
Degree Days  
Heating Degree Days 25 12  
Month to date heating degree days 288 331  
Since 1 July heating degree days 5294 5376  
Cooling Degree Days 0 0  
Month to date cooling degree days 17 0  
Year to date cooling degree days 17 1  
Moisture  
Dew Point 20 °F    
Average Humidity 51    
Maximum Humidity 78    
Minimum Humidity 24    
Precipitation  
Precipitation 0.00 in 0.10 in 1.16 in (1964)
Month to date precipitation 2.47 2.18  
Year to date precipitation 9.21 10.22  
Snow  
Snow 0.00 in 0.00 in 3.00 in (1922)
Month to date snowfall T 1.4  
Since 1 July snowfall 57.4 41.8  
Snow Depth 0.00 in    
Sea Level Pressure  
Sea Level Pressure 30.54 in    
Wind  
Wind Speed 5 mph (ENE)    
Max Wind Speed 13 mph    
Max Gust Speed 18 mph    
Visibility 10 miles    
Events      
T = Trace of Precipitation, MM = Missing Value Source: NWS Daily Summary

Daily Weather History Graph

Daily Weather History Graph

Search for Another Location

Airport or City:

Trip Planner

Search our weather history database for the weather conditions in past years. The results will help you decide how hot, cold, wet, or windy it might be!

Date:

Astronomy

Apr. 21, 2013 Rise Set
Actual Time 6:33 AM EDT 8:06 PM EDT
Civil Twilight 6:04 AM EDT 8:35 PM EDT
Nautical Twilight 5:29 AM EDT 9:10 PM EDT
Astronomical Twilight 4:53 AM EDT 9:47 PM EDT
Moon 3:49 PM EDT (4/21) 3:55 AM EDT (4/21)
Length of Visible Light 14h 30m
Length of Day
13h 33m
Waxing Gibbous, 79% of the Moon is Illuminated
Apr 21
Waxing Gibbous
Apr 25
Full
May 2
Last Quarter
May 9
New
May 18
First Quarter

Hourly Weather History & Observations

Time (EDT) Temp. Windchill Dew Point Humidity Pressure Visibility Wind Dir Wind Speed Gust Speed Precip Events Conditions
12:51 AM 35.1 °F 32.2 °F 21.9 °F 59% 30.46 in 10.0 mi North 3.5 mph - N/A   Partly Cloudy
1:51 AM 35.1 °F - 21.9 °F 59% 30.47 in 10.0 mi Calm Calm - N/A   Scattered Clouds
2:51 AM 32.0 °F - 21.9 °F 66% 30.49 in 10.0 mi Calm Calm - N/A   Partly Cloudy
3:51 AM 33.1 °F - 21.0 °F 61% 30.50 in 10.0 mi Calm Calm - N/A   Scattered Clouds
4:51 AM 32.0 °F - 21.0 °F 64% 30.52 in 10.0 mi Calm Calm - N/A   Clear
5:51 AM 30.0 °F - 21.9 °F 72% 30.54 in 10.0 mi Calm Calm - N/A   Partly Cloudy
6:51 AM 28.9 °F - 23.0 °F 78% 30.58 in 10.0 mi Calm Calm - N/A   Partly Cloudy
7:51 AM 32.0 °F 28.7 °F 25.0 °F 75% 30.61 in 10.0 mi ENE 3.5 mph - N/A   Partly Cloudy
8:51 AM 35.1 °F 29.3 °F 24.1 °F 64% 30.63 in 10.0 mi ENE 6.9 mph - N/A   Partly Cloudy
9:51 AM 39.0 °F 35.7 °F 21.0 °F 49% 30.63 in 10.0 mi East 4.6 mph - N/A   Mostly Cloudy
10:51 AM 39.9 °F 35.8 °F 18.0 °F 41% 30.64 in 10.0 mi NE 5.8 mph - N/A   Mostly Cloudy
11:51 AM 42.1 °F - 19.9 °F 41% 30.63 in 10.0 mi Calm Calm - N/A   Mostly Cloudy
12:51 PM 45.0 °F 42.6 °F 18.0 °F 34% 30.61 in 10.0 mi Variable 4.6 mph - N/A   Mostly Cloudy
1:51 PM 46.9 °F - 18.0 °F 32% 30.58 in 10.0 mi Variable 4.6 mph - N/A   Scattered Clouds
2:51 PM 48.0 °F - 19.0 °F 32% 30.56 in 10.0 mi East 9.2 mph - N/A   Scattered Clouds
3:51 PM 50.0 °F - 19.0 °F 29% 30.53 in 10.0 mi ESE 9.2 mph - N/A   Mostly Cloudy
4:51 PM 50.0 °F - 17.1 °F 27% 30.51 in 10.0 mi ESE 10.4 mph - N/A   Mostly Cloudy
5:51 PM 52.0 °F - 19.0 °F 27% 30.50 in 10.0 mi ENE 6.9 mph - N/A   Mostly Cloudy
6:51 PM 51.1 °F - 16.0 °F 25% 30.50 in 10.0 mi East 6.9 mph - N/A   Mostly Cloudy
7:51 PM 50.0 °F - 16.0 °F 26% 30.50 in 10.0 mi ENE 5.8 mph - N/A   Mostly Cloudy
8:51 PM 48.9 °F - 17.1 °F 28% 30.49 in 10.0 mi NE 4.6 mph - N/A   Mostly Cloudy
9:51 PM 46.9 °F - 19.0 °F 33% 30.50 in 10.0 mi ENE 6.9 mph - N/A   Mostly Cloudy
10:51 PM 44.1 °F 40.1 °F 19.9 °F 38% 30.50 in 10.0 mi East 6.9 mph - N/A   Mostly Cloudy
11:51 PM 45.0 °F 40.6 °F 19.9 °F 37% 30.50 in 10.0 mi ESE 8.1 mph - N/A   Mostly Cloudy